STARLINK-32945, 63118

Orbit data source: Space-Track

STARLINK-32945, 63118 is a payload satellite owned by SpaceX/Seattle (US) in LEO that was launched on Thu, 27 Feb 2025 UTC via an FALCON 9 launch vehicle from the Air Force Eastern Test Range (AFETR). Payload-class satellites include a variety of spacecraft equipped with specific instruments for various scientific and technological missions. These include communications satellites like Starlink; space stations such as the ISS; scientific satellites like the Hubble; Earth observation satellites from companies like Planet Labs, Umbra, and HawkEye 360; GPS; miniature CubeSats for education and research; and military/defense satellites.

Loading next visibility...
Identifier
63118, 2025-039Q
Orbit
LEO
Country
Flag of USUS
Related business
Manufacturer
SpaceX/Seattle
Mission
Operational Commercial Communications
Bus & Motor
STARLINK V2M, Unknown motor
Mass
730 kg wet, ~700 kg dry
Launch date (UTC)
2025-02-27 (1 year ago)
Launch vehicle
FALCON 9
Launch site
Air Force Eastern Test Range (AFETR)
Object type
Payload
Rocket body
Debris
Shape & HBR
Box + 2 Pan, 17.7 m
Radar Cross Section
33.884 m², Large (>1 m²)

Expand to show TLE details & history
Last TLE update: 14 hours ago

TLE from 14 hours ago
0 STARLINK-32945
1 63118U 25039Q   26119.78896176  .00022538  00000-0  82551-3 0  9993
2 63118  42.9975  84.0344 0000547 268.7653  91.3136 15.27600022 65888
Epoch: 2026-04-29T18:56Z
TLE epoch observation values (Epoch: 2026-04-29T18:56:06.296Z)
Latitude
0.00001°
Longitude
-57.73671°
Altitude
482.773 km
Speed
7.626 km/s
True Right ascension
05h 36m 08s
True Declination
0° 00' 00"
Sunlit
Object was in daylight at epoch
Visualization orbit readout
Latitude
Unknown
Longitude
Unknown
Altitude
Unknown
Speed
Unknown
Apparent Right ascension
Unknown
Apparent Declination
Unknown
Sunlit
N/A
Visualization observer readout
Local Sidereal Time
16:39:35
Azimuth
Unknown
Elevation
Unknown
Doppler factor
Unknown
Orbital elements
Apogee altitude
485.31 km
Perigee altitude
484.559 km
Semi-major axis
6,863.072 km
Eccentricity
0.00005
Inclination
42.9975°
RAAN
84.0344°
Arg. of periapsis
268.7653°
True anomaly
91.31987°
Mean anomaly
91.3136°
Eccentric anomaly
91.31673°
Mean motion
3.81738 °/min
Orbital period
94.31 mins
BSTAR
0.00082551
Loading maneuver chart data...
Computing Atmospheric mass density...
Loading historical data...
Loading historical data...
Loading historical data...
Loading historical data...
Loading historical data...
Loading historical data...
Loading historical data...

Documentation

Showing up to 5 results
|